Edinburgh Airport, United Kingdom

5:23 PM BST on May 22, 2017 (GMT +0100)
Edinburgh Airport

Weather History for EGPH - June, 2013

Change the Weather History Date:

Monday, June 3, 2013

  Actual Average Record
Temperature  
Mean Temperature 56 °F -  
Max Temperature 68 °F 63 °F 77 °F (2011)
Min Temperature 44 °F 48 °F 39 °F (2016)
Degree Days  
Heating Degree Days 9    
Growing Degree Days 6 (Base 50)    
Moisture  
Dew Point 49 °F    
Average Humidity 77    
Maximum Humidity 93    
Minimum Humidity 56    
Precipitation  
Precipitation 0.00 in 0.07 in - ()
Sea Level Pressure  
Sea Level Pressure 30.47 in    
Wind  
Wind Speed 5 mph ()    
Max Wind Speed 8 mph    
Max Gust Speed -    
Visibility 6.2 miles    
Events      
Averages and records for this station are not official NWS values.
T = Trace of Precipitation, MM = Missing Value Source: Averaged Metar Reports

Daily Weather History Graph

Daily Weather History Graph

Search for Another Location

Airport or City:

Trip Planner

Search our weather history database for the weather conditions in past years. The results will help you decide how hot, cold, wet, or windy it might be!

Date:

Astronomy

Jun. 03, 2013 Rise Set
Actual Time 4:33 AM BST 9:50 PM BST
Civil Twilight 3:35 AM BST 10:48 PM BST
Nautical Twilight 1:43 AM BST 12:39 AM BST
Astronomical Twilight Sun does not set Sun does not set
Moon 2:17 AM BST (6/3) 4:19 PM BST (6/3)
Length of Visible Light 19h 13m
Length of Day
17h 16m
Waning Crescent, 24% of the Moon is Illuminated
Jun 3
Waning Crescent
Jun 8
New
Jun 16
First Quarter
Jun 23
Full
Jun 30
Last Quarter

Hourly Weather History & Observations

Time (BST) Temp. Windchill Dew Point Humidity Pressure Visibility Wind Dir Wind Speed Gust Speed Precip Events Conditions
12:20 AM 46.4 °F 43.5 °F 41.0 °F 81% 30.45 in - SW 5.8 mph - N/A   Clear
12:50 AM 46.4 °F 43.5 °F 42.8 °F 87% 30.45 in - WSW 5.8 mph - N/A   Clear
1:20 AM 44.6 °F 41.4 °F 41.0 °F 87% 30.45 in - WSW 5.8 mph - N/A   Clear
1:50 AM 46.4 °F 43.5 °F 42.8 °F 87% 30.45 in - West 5.8 mph - N/A   Clear
2:20 AM 46.4 °F 43.5 °F 42.8 °F 87% 30.45 in 6.2 mi West 5.8 mph - N/A   Unknown
2:50 AM 46.4 °F 44.3 °F 42.8 °F 87% 30.45 in - West 4.6 mph - N/A   Clear
3:20 AM 44.6 °F 41.4 °F 42.8 °F 93% 30.45 in - West 5.8 mph - N/A   Clear
3:50 AM 44.6 °F 42.2 °F 42.8 °F 93% 30.45 in - West 4.6 mph - N/A   Clear
4:20 AM 46.4 °F 43.5 °F 42.8 °F 87% 30.45 in - West 5.8 mph - N/A   Clear
4:50 AM 44.6 °F 42.2 °F 42.8 °F 93% 30.45 in 6.2 mi West 4.6 mph - N/A   Mostly Cloudy
5:20 AM 46.4 °F 45.2 °F 44.6 °F 93% 30.45 in 6.2 mi Variable 3.5 mph - N/A   Mostly Cloudy
5:50 AM 50.0 °F - 46.4 °F 87% 30.45 in 6.2 mi WSW 5.8 mph - N/A   Overcast
6:20 AM 51.8 °F - 46.4 °F 82% 30.48 in 6.2 mi Variable 3.5 mph - N/A   Overcast
6:50 AM 51.8 °F - 46.4 °F 82% 30.48 in 6.2 mi WSW 6.9 mph - N/A   Overcast
7:20 AM 53.6 °F - 46.4 °F 77% 30.48 in 6.2 mi WSW 5.8 mph - N/A   Mostly Cloudy
7:50 AM 53.6 °F - 48.2 °F 82% 30.48 in 6.2 mi West 3.5 mph - N/A   Mostly Cloudy
8:20 AM 53.6 °F - 48.2 °F 82% 30.48 in 6.2 mi Variable 2.3 mph - N/A   Mostly Cloudy
8:50 AM 55.4 °F - 48.2 °F 77% 30.48 in 6.2 mi Variable 2.3 mph - N/A   Mostly Cloudy
9:20 AM 57.2 °F - 50.0 °F 77% 30.48 in 6.2 mi Variable 3.5 mph - N/A   Mostly Cloudy
9:50 AM 57.2 °F - 50.0 °F 77% 30.48 in 6.2 mi WSW 5.8 mph - N/A   Mostly Cloudy
10:20 AM 57.2 °F - 51.8 °F 82% 30.48 in 6.2 mi West 2.3 mph - N/A   Mostly Cloudy
10:50 AM 59.0 °F - 51.8 °F 77% 30.48 in 6.2 mi Variable 3.5 mph - N/A   Overcast
11:20 AM 59.0 °F - 51.8 °F 77% 30.48 in 6.2 mi Variable 3.5 mph - N/A   Mostly Cloudy
11:50 AM 60.8 °F - 53.6 °F 77% 30.48 in 6.2 mi SW 5.8 mph - N/A   Mostly Cloudy
12:20 PM 62.6 °F - 53.6 °F 72% 30.48 in 6.2 mi Variable 4.6 mph - N/A   Mostly Cloudy
12:50 PM 62.6 °F - 53.6 °F 72% 30.48 in 6.2 mi West 5.8 mph - N/A   Mostly Cloudy
1:20 PM 62.6 °F - 53.6 °F 72% 30.48 in 6.2 mi WNW 4.6 mph - N/A   Mostly Cloudy
1:50 PM 64.4 °F - 53.6 °F 68% 30.48 in 6.2 mi WNW 4.6 mph - N/A   Mostly Cloudy
2:20 PM 66.2 °F - 53.6 °F 64% 30.48 in 6.2 mi Variable 5.8 mph - N/A   Scattered Clouds
2:50 PM 68.0 °F - 51.8 °F 56% 30.48 in 6.2 mi Variable 3.5 mph - N/A   Scattered Clouds
3:20 PM 68.0 °F - 51.8 °F 56% 30.48 in 6.2 mi Variable 3.5 mph - N/A   Scattered Clouds
3:50 PM 68.0 °F - 53.6 °F 60% 30.48 in 6.2 mi Variable 3.5 mph - N/A   Mostly Cloudy
4:20 PM 68.0 °F - 51.8 °F 56% 30.48 in 6.2 mi Variable 3.5 mph - N/A   Mostly Cloudy
4:50 PM 68.0 °F - 53.6 °F 60% 30.48 in 6.2 mi Variable 3.5 mph - N/A   Mostly Cloudy
5:20 PM 68.0 °F - 53.6 °F 60% 30.45 in 6.2 mi Variable 3.5 mph - N/A   Scattered Clouds
5:50 PM 68.0 °F - 53.6 °F 60% 30.45 in 6.2 mi West 5.8 mph - N/A   Scattered Clouds
6:20 PM 66.2 °F - 51.8 °F 60% 30.45 in 6.2 mi Variable 2.3 mph - N/A   Scattered Clouds
6:50 PM 66.2 °F - 53.6 °F 64% 30.45 in 6.2 mi Variable 3.5 mph - N/A   Scattered Clouds
7:20 PM 66.2 °F - 53.6 °F 64% 30.45 in 6.2 mi NE 4.6 mph - N/A   Scattered Clouds
7:50 PM 59.0 °F - 51.8 °F 77% 30.48 in 6.2 mi NE 6.9 mph - N/A   Scattered Clouds
8:20 PM 57.2 °F - 51.8 °F 82% 30.48 in 6.2 mi NE 8.1 mph - N/A   Scattered Clouds
8:50 PM 57.2 °F - 51.8 °F 82% 30.48 in 6.2 mi NE 5.8 mph - N/A   Scattered Clouds
9:20 PM 55.4 °F - 51.8 °F 88% 30.48 in 6.2 mi NE 6.9 mph - N/A   Scattered Clouds
9:50 PM 55.4 °F - 51.8 °F 88% 30.48 in 6.2 mi NE 6.9 mph - N/A   Scattered Clouds
10:20 PM 55.4 °F - 50.0 °F 82% 30.48 in 6.2 mi NE 5.8 mph - N/A   Unknown
10:50 PM 53.6 °F - 50.0 °F 88% 30.51 in 6.2 mi NE 8.1 mph - N/A   Unknown
11:20 PM 53.6 °F - 50.0 °F 88% 30.51 in 6.2 mi ENE 6.9 mph - N/A   Mostly Cloudy
11:50 PM 53.6 °F - 50.0 °F 88% 30.51 in 6.2 mi ENE 5.8 mph - N/A   Mostly Cloudy